Location: Willow Grove Park
(46.1754°N, 123.0885°W)
Time: 08:48:29
(UTC-07:00)

N. Korean satellite - Visible Passes

Search period start: 18 March 2019 00:00
Search period end: 28 March 2019 00:00
Orbit: 455 x 511 km, 97.2° (Epoch: 18 March)

Date Brightness Start Highest point End Pass type
(mag) Time Alt. Az. Time Alt. Az. Time Alt. Az.
19 Mar 9.3 06:47:16 10° NE 06:50:15 25° E 06:53:14 10° SSE visible
20 Mar 10.0 06:23:27 10° ENE 06:25:15 13° E 06:27:04 10° ESE visible
24 Mar 10.2 06:17:59 10° ENE 06:19:21 12° E 06:20:43 10° ESE visible
